Home   Weather   Kinshasa   Past weeks

Flag for Congo Dem. Rep. Past Weather in Kinshasa, Congo Dem. Rep. — Yesterday and Last 2 Weeks

Now
73 °F

Clear.


Feels Like: 70 °F
Forecast: 74 / 89 °F
Wind: No wind

Location: Brazzaville / Maya-Maya

Current Time: Dec 11, 2016 at 5:31:39 am

Latest Report: Dec 11, 2016 at 5:00 am


Visibility: 5 mi

Pressure: 29.89 "Hg

Humidity: 94%

Dew Point: 72 °F

Location of KinshasaLocation

Past Weather in Kinshasa — Graph

°F

Kinshasa Temperature Yesterday

Maximum temperature yesterday: 88 °F (at 4:00 pm)
Minimum temperature yesterday: 72 °F (at 2:00 am)
Average temperature yesterday: 79 °F

High & Low Weather Summary for the Past Weeks

 TemperatureHumidityPressure
High93 °F (Nov 26, 3:00 pm)100% (Nov 26, 9:00 pm)30.01 "Hg (Nov 26, 9:00 pm)
Low70 °F (Dec 3, 4:00 am)47% (Nov 27, 3:00 pm)29.71 "Hg (Nov 27, 4:00 pm)
Average79 °F81%29.90 "Hg
* Reported Nov 26 4:00 am — Dec 11 4:00 am, Kinshasa, Weather by CustomWeather, © 2016

Note: Actual official high and low records may vary slightly from our data, if they occured in-between our weather recording intervals... More about our weather records

Advertising

Kinshasa Weather History for the Previous 24 Hours

Scroll right to see more
 ConditionsComfort  
Time TempWeatherWind HumidityBarometerVisibility
4:00 am
Sun, Dec 11
72 °FClear.1 mph100%29.86 "Hg5 mi
3:00 am72 °FClear.2 mph100%29.86 "Hg5 mi
2:00 am73 °FClear.3 mph94%29.86 "Hg5 mi
1:00 am73 °FClear.2 mph94%29.86 "Hg4 mi
12:00 am75 °FClear.No wind89%29.89 "Hg5 mi
11:00 pm
Sat, Dec 10
75 °FClear.2 mph94%29.89 "Hg5 mi
10:00 pm77 °FClear.No wind89%29.89 "Hg5 mi
9:00 pm79 °FClear.No wind84%29.89 "Hg5 mi
8:00 pm81 °FClear.2 mph79%29.86 "Hg5 mi
7:00 pm82 °FPassing clouds.3 mph70%29.86 "HgN/A
6:00 pm82 °FPassing clouds.5 mph70%29.83 "HgN/A
5:00 pm86 °FPassing clouds.2 mph62%29.83 "HgN/A
4:00 pm88 °FPassing clouds.3 mph59%29.80 "Hg5 mi
3:00 pm86 °FPassing clouds.6 mph62%29.83 "Hg5 mi
2:00 pm86 °FPassing clouds.6 mph62%29.86 "Hg5 mi
1:00 pm86 °FPassing clouds.3 mph62%29.89 "HgN/A
12:00 pm82 °FPassing clouds.1 mph70%29.92 "HgN/A
11:00 am82 °FPassing clouds.2 mph70%29.95 "HgN/A
10:00 am79 °FPassing clouds.5 mph74%29.98 "HgN/A
9:00 am79 °FScattered clouds.3 mph74%29.98 "HgN/A
8:00 am75 °FPassing clouds.2 mph89%29.98 "Hg6 mi
7:00 am73 °FScattered clouds.No wind89%29.95 "Hg5 mi
6:00 am72 °FPassing clouds.2 mph100%29.95 "Hg5 mi
5:00 am72 °FPassing clouds.No wind94%29.95 "Hg5 mi
Weather by CustomWeather, © 2016

See weather overviewHow to use our weather pages